NOZ200 ENVA-ENGM

Flight info

Callsign NOZ200
Flight time N/A
Altitude 31000
Route UTUNA DCT TUTBI DCT BELGU
Aircraft B738/M-SDE2E3FGHIRWXY/LB1

Departure

Time 2026-05-05 18:05
Airport Trondheim Airport, Værnes (ENVA)

Arrival

Time N/A
Airport Oslo-Gardermoen International Airport (ENGM)
Time Latitude Longitude Altitude Speed Heading
2026-05-05 17:48 63.45501 10.91582 77 ft 0 kts 180°
2026-05-05 17:57 63.45507 10.91582 35 ft 3 kts 180°
2026-05-05 17:58 63.45526 10.91582 35 ft 3 kts 180°
2026-05-05 17:58 63.45544 10.91583 38 ft 3 kts 180°
2026-05-05 17:58 63.45553 10.91583 38 ft 0 kts 180°
2026-05-05 18:00 63.45550 10.91583 38 ft 2 kts 177°
2026-05-05 18:01 63.45540 10.91613 42 ft 3 kts 95°
2026-05-05 18:01 63.45562 10.91674 36 ft 9 kts 47°
2026-05-05 18:01 63.45595 10.91858 39 ft 17 kts 87°
2026-05-05 18:01 63.45595 10.92141 40 ft 19 kts 90°
2026-05-05 18:02 63.45594 10.92462 41 ft 21 kts 90°
2026-05-05 18:02 63.45594 10.92783 45 ft 20 kts 90°
2026-05-05 18:02 63.45593 10.93095 49 ft 20 kts 90°
2026-05-05 18:02 63.45592 10.93396 53 ft 19 kts 90°
2026-05-05 18:03 63.45591 10.93693 55 ft 18 kts 90°
2026-05-05 18:03 63.45641 10.93937 56 ft 18 kts 45°
2026-05-05 18:03 63.45714 10.94087 57 ft 10 kts 29°
2026-05-05 18:03 63.45754 10.94051 59 ft 6 kts 290°
2026-05-05 18:04 63.45757 10.93950 58 ft 7 kts 271°
2026-05-05 18:04 63.45757 10.93800 56 ft 18 kts 270°
2026-05-05 18:04 63.45757 10.93009 47 ft 94 kts 270°
2026-05-05 18:04 63.45739 10.90969 126 ft 160 kts 267°
2026-05-05 18:05 63.45687 10.88472 928 ft 177 kts 266°
2026-05-05 18:05 63.45632 10.85670 2020 ft 183 kts 274°
2026-05-05 18:05 63.45728 10.82679 2537 ft 205 kts 271°
2026-05-05 18:05 63.45231 10.79623 3055 ft 222 kts 232°
2026-05-05 18:06 63.43829 10.77762 3481 ft 253 kts 195°
2026-05-05 18:06 63.42625 10.77580 4079 ft 261 kts 181°
2026-05-05 18:06 63.40198 10.78306 5232 ft 269 kts 174°
2026-05-05 18:06 63.38350 10.79061 6168 ft 272 kts 173°
2026-05-05 18:07 63.36470 10.79831 7040 ft 276 kts 174°
2026-05-05 18:07 63.34569 10.80583 7931 ft 279 kts 174°
2026-05-05 18:07 63.32653 10.81316 8777 ft 283 kts 174°
2026-05-05 18:07 63.30701 10.82041 9654 ft 286 kts 174°
2026-05-05 18:08 63.28722 10.82762 10363 ft 295 kts 174°
2026-05-05 18:08 63.26609 10.83515 10578 ft 320 kts 174°
2026-05-05 18:08 63.25245 10.83999 10703 ft 334 kts 174°
2026-05-05 18:08 63.22962 10.84811 11166 ft 347 kts 174°
2026-05-05 18:09 63.20556 10.85669 11897 ft 352 kts 174°
2026-05-05 18:09 63.18132 10.86529 12716 ft 355 kts 174°
2026-05-05 18:09 63.15708 10.87385 13501 ft 358 kts 174°
2026-05-05 18:09 63.13232 10.88140 14204 ft 360 kts 181°
2026-05-05 18:10 63.10783 10.87346 14893 ft 356 kts 199°
2026-05-05 18:10 63.08399 10.85789 15622 ft 359 kts 199°
2026-05-05 18:10 63.05986 10.84249 16300 ft 363 kts 199°
2026-05-05 18:10 63.04492 10.83309 16720 ft 365 kts 199°
2026-05-05 18:11 63.02034 10.81782 17390 ft 368 kts 199°
2026-05-05 18:11 62.99559 10.80262 18127 ft 370 kts 199°
2026-05-05 18:11 62.97437 10.78965 18632 ft 373 kts 198°
2026-05-05 18:11 62.94924 10.77435 19145 ft 378 kts 199°
2026-05-05 18:12 62.92377 10.75888 19700 ft 382 kts 198°
2026-05-05 18:12 62.90643 10.74837 20081 ft 384 kts 199°
2026-05-05 18:12 62.88166 10.73337 20619 ft 388 kts 198°
2026-05-05 18:12 62.85552 10.71759 21151 ft 392 kts 198°
2026-05-05 18:13 62.82899 10.70260 21671 ft 397 kts 192°
2026-05-05 18:13 62.80124 10.69706 22174 ft 404 kts 185°
2026-05-05 18:13 62.77302 10.69553 22696 ft 408 kts 184°
2026-05-05 18:13 62.74452 10.69485 23154 ft 413 kts 183°
2026-05-05 18:14 62.71559 10.69411 23615 ft 415 kts 184°
2026-05-05 18:14 62.68662 10.69302 23978 ft 419 kts 184°
2026-05-05 18:14 62.65764 10.69158 24373 ft 421 kts 185°
2026-05-05 18:14 62.62827 10.68985 24782 ft 423 kts 185°
2026-05-05 18:15 62.59876 10.68795 25164 ft 426 kts 185°
2026-05-05 18:15 62.56902 10.68595 25539 ft 429 kts 185°
2026-05-05 18:15 62.53911 10.68390 25909 ft 431 kts 185°
2026-05-05 18:15 62.50900 10.68184 26260 ft 434 kts 186°
2026-05-05 18:16 62.47867 10.67977 26614 ft 436 kts 186°
2026-05-05 18:16 62.44825 10.67770 26951 ft 439 kts 186°
2026-05-05 18:16 62.41764 10.67564 27267 ft 441 kts 186°
2026-05-05 18:16 62.38688 10.67358 27646 ft 443 kts 187°
2026-05-05 18:17 62.35609 10.67154 28144 ft 441 kts 187°
2026-05-05 18:17 62.32554 10.66953 28671 ft 439 kts 187°
2026-05-05 18:17 62.29503 10.66751 29115 ft 439 kts 187°
2026-05-05 18:17 62.26452 10.66547 29552 ft 439 kts 187°
2026-05-05 18:18 62.23397 10.66343 29907 ft 440 kts 187°
2026-05-05 18:18 62.17223 10.65929 29883 ft 442 kts 187°
2026-05-05 18:19 62.11164 10.65537 29823 ft 437 kts 188°
2026-05-05 18:19 62.05124 10.65141 29849 ft 427 kts 188°
2026-05-05 18:19 62.02192 10.64955 29588 ft 417 kts 188°
2026-05-05 18:20 61.99312 10.64768 29126 ft 412 kts 188°
2026-05-05 18:20 61.96448 10.64577 28528 ft 411 kts 188°
2026-05-05 18:20 61.93590 10.64385 27965 ft 409 kts 188°
2026-05-05 18:20 61.90761 10.64197 27479 ft 406 kts 188°
2026-05-05 18:21 61.87945 10.64012 27020 ft 402 kts 188°
2026-05-05 18:21 61.85156 10.63829 26573 ft 399 kts 188°
2026-05-05 18:21 61.82394 10.63647 26122 ft 396 kts 188°
2026-05-05 18:21 61.79647 10.63468 25642 ft 393 kts 189°
2026-05-05 18:22 61.76927 10.63291 25244 ft 389 kts 189°
2026-05-05 18:22 61.74230 10.63114 24830 ft 386 kts 188°
2026-05-05 18:22 61.71549 10.62938 24381 ft 384 kts 188°
2026-05-05 18:22 61.68884 10.62763 23970 ft 382 kts 188°
2026-05-05 18:23 61.66238 10.62590 23575 ft 379 kts 188°
2026-05-05 18:23 61.63606 10.62418 23098 ft 377 kts 188°
2026-05-05 18:23 61.60997 10.62248 22635 ft 374 kts 188°
2026-05-05 18:23 61.58401 10.62079 22182 ft 372 kts 188°
2026-05-05 18:24 61.55824 10.61912 21711 ft 369 kts 187°
2026-05-05 18:24 61.53263 10.61746 21249 ft 367 kts 187°
2026-05-05 18:24 61.50723 10.61582 20811 ft 364 kts 187°
2026-05-05 18:24 61.48167 10.61420 20451 ft 360 kts 188°
2026-05-05 18:25 61.45674 10.61260 20037 ft 357 kts 187°
2026-05-05 18:25 61.44864 10.61207 19893 ft 357 kts 187°
2026-05-05 18:25 61.40707 10.60936 19149 ft 356 kts 186°